星链-2114 (STARLINK-2114 )

导读 | 星芒AI

STARLINK-2114 是 SpaceX 星链计划中的一颗低轨通信卫星,属于星链第二代卫星群。该卫星于2023年发射,旨在为全球用户提供高速、低延迟的互联网服务。它运行在约550公里高的近地轨道,采用先进推进系统和激光通信技术,以提升网络效率和稳定性。作为星链系统的重要组成部分,STARLINK-2114 有助于扩大覆盖范围,特别是在偏远和网络基础设施薄弱的地区。

基本信息
目录编号:
47393
目录名称:
STARLINK-2114
国际标识:
2021-005AW
轨道中心:
EARTH
卫星名称:
星链-2114
卫星全名:
星链-2114 (STARLINK-2114 )
卫星状态:
在轨 (已飞行1791 天)
发射日期:
2021-01-20 UTC
国别 :
美国 (US)
星等 :
--
轨道信息
数据来源 国际轨道数据
星历时间: 2025-12-16T08:00:03+0800
16小时前
查看轨道信息
半长轴: 6907.425km
偏心率: 0.0001298
轨道倾角: 53.054°
近地点辐角 40.297°
升交点赤经 22.560°
平近点角 261.630°
近地点: 528.393km
远地点: 530.187km
周期: 95.221分钟
每日圈数: 15.122673
详细信息
固有亮度:
5
最大亮度:
2.5
卫星平台:
Starlink V1.0
覆盖范围:
全球
运营商:
太空探索技术公司
运营商所在国:
美国
制造商(研发单位):
太空探索技术公司
制造商所在国:
美国
使用方式:
暂无
卫星简介
星链(Starlink)计划是由太空探索技术公司(SpaceX)提出的一个巨型低轨卫星互联网星座项目,计划在2019年至2024年间在太空搭建由约1.2万颗卫星组成的“星链”网络,其中1584颗将部署在地球上空550千米处的近地轨道,并从2020年开始工作。该卫星仍在工作。
2D轨道图
3D轨道图
轨道高度分析图
轨道倾角分析图
轨道综合分析图
查看轨道综合分析图